When you browse on this site, cookies collect data to enhance your experience and personalize the content and advertising you see.
Visit our Privacy Policy to learn more. By continuing to use the site, you agree to this use of cookies and data.
  • In Österreich
  • Länderverzeichnis
  • Für 7 Tage
  • Wassertemperatur
  • Satellitenkarten
  • Wetterkarte
  • News
  • Widgets
  • user-avatar
    Anmelden

    Stündliche Wetter Rop Wiang

    Heute, 23 Juli, Dienstag

    Zeit Temperatur Niederschläge Wind Luftdruck Luftfeuchtigkeit
    00:00 +24°C° 0.1 mm 0 m/S 722 mmHg 94%
    01:00 +26°C° 0 mm 1 m/S 721 mmHg 94%
    02:00 +24°C° 0 mm 0 m/S 721 mmHg 94%
    03:00 +24°C° 0 mm 0 m/S 721 mmHg 94%
    04:00 +23°C° 0 mm 0 m/S 720 mmHg 94%
    05:00 +23°C° 0.2 mm 0 m/S 721 mmHg 94%
    06:00 +23°C° 0.2 mm 0 m/S 721 mmHg 94%
    07:00 +23°C° 0.2 mm 0 m/S 721 mmHg 95%
    08:00 +24°C° 0.4 mm 0 m/S 722 mmHg 91%
    09:00 +27°C° 0.4 mm 1 m/S 722 mmHg 88%
    10:00 +28°C° 0.4 mm 1 m/S 722 mmHg 84%
    11:00 +29°C° 0.9 mm 1 m/S 721 mmHg 84%
    12:00 +29°C° 0.9 mm 1 m/S 721 mmHg 83%
    13:00 +30°C° 0.9 mm 1 m/S 721 mmHg 83%
    14:00 +29°C° 0.8 mm 1 m/S 720 mmHg 87%
    15:00 +28°C° 0.8 mm 1 m/S 720 mmHg 91%
    16:00 +24°C° 0.8 mm 0 m/S 720 mmHg 95%
    17:00 +24°C° 0.6 mm 0 m/S 720 mmHg 94%
    18:00 +24°C° 0.6 mm 0 m/S 720 mmHg 94%
    19:00 +24°C° 0.6 mm 0 m/S 720 mmHg 94%
    20:00 +23°C° 0.4 mm 0 m/S 721 mmHg 95%
    21:00 +23°C° 0.4 mm 0 m/S 721 mmHg 95%
    22:00 +23°C° 0.4 mm 0 m/S 722 mmHg 96%
    23:00 +23°C° 0.1 mm 0 m/S 721 mmHg 96%

    Morgen, 24 Juli, Mittwoch

    Zeit Temperatur Niederschläge Wind Luftdruck Luftfeuchtigkeit
    00:00 +23°C° 0.1 mm 0 m/S 721 mmHg 97%
    01:00 +23°C° 0.1 mm 0 m/S 721 mmHg 97%
    02:00 +22°C° 0 mm 0 m/S 721 mmHg 97%
    03:00 +22°C° 0 mm 0 m/S 720 mmHg 97%
    04:00 +22°C° 0 mm 0 m/S 720 mmHg 97%
    05:00 +22°C° 0.1 mm 0 m/S 720 mmHg 97%
    06:00 +22°C° 0.1 mm 0 m/S 721 mmHg 98%
    07:00 +22°C° 0.1 mm 0 m/S 721 mmHg 98%
    08:00 +23°C° 0.1 mm 0 m/S 721 mmHg 97%
    09:00 +25°C° 0.1 mm 1 m/S 722 mmHg 97%
    10:00 +25°C° 0.1 mm 1 m/S 722 mmHg 96%
    11:00 +26°C° 0.3 mm 1 m/S 722 mmHg 95%
    12:00 +26°C° 0.3 mm 1 m/S 722 mmHg 94%
    13:00 +26°C° 0.3 mm 1 m/S 722 mmHg 93%
    14:00 +26°C° 0.3 mm 1 m/S 721 mmHg 94%
    15:00 +26°C° 0.3 mm 1 m/S 721 mmHg 94%
    16:00 +26°C° 0.3 mm 1 m/S 720 mmHg 95%
    17:00 +26°C° 0.1 mm 1 m/S 720 mmHg 95%
    18:00 +24°C° 0.1 mm 0 m/S 721 mmHg 96%
    19:00 +23°C° 0.1 mm 0 m/S 721 mmHg 96%
    20:00 +23°C° 0.2 mm 0 m/S 721 mmHg 96%
    21:00 +23°C° 0.2 mm 0 m/S 722 mmHg 96%
    22:00 +25°C° 0.2 mm 1 m/S 723 mmHg 96%
    23:00 +23°C° 0.1 mm 0 m/S 722 mmHg 97%

    übermorgen, 25 Juli, Donnerstag

    Zeit Temperatur Niederschläge Wind Luftdruck Luftfeuchtigkeit
    00:00 +23°C° 0.1 mm 0 m/S 722 mmHg 97%
    01:00 +22°C° 0.1 mm 0 m/S 722 mmHg 97%
    02:00 +22°C° 0 mm 0 m/S 722 mmHg 97%
    03:00 +22°C° 0 mm 0 m/S 722 mmHg 98%
    04:00 +22°C° 0 mm 0 m/S 722 mmHg 98%
    05:00 +22°C° 0 mm 0 m/S 722 mmHg 98%
    06:00 +22°C° 0 mm 0 m/S 722 mmHg 98%
    07:00 +22°C° 0 mm 0 m/S 722 mmHg 98%
    08:00 +25°C° 0.3 mm 1 m/S 723 mmHg 95%
    09:00 +26°C° 0.3 mm 1 m/S 723 mmHg 93%
    10:00 +26°C° 0.3 mm 1 m/S 724 mmHg 91%
    11:00 +28°C° 0.5 mm 1 m/S 723 mmHg 86%
    12:00 +29°C° 0.5 mm 1 m/S 723 mmHg 81%
    13:00 +30°C° 0.5 mm 1 m/S 722 mmHg 76%
    14:00 +30°C° 1 mm 1 m/S 722 mmHg 79%
    15:00 +30°C° 1 mm 1 m/S 721 mmHg 81%
    16:00 +29°C° 1 mm 1 m/S 721 mmHg 84%
    17:00 +28°C° 0.6 mm 1 m/S 721 mmHg 87%
    18:00 +27°C° 0.6 mm 1 m/S 721 mmHg 90%
    19:00 +26°C° 0.6 mm 1 m/S 721 mmHg 93%
    20:00 +26°C° 0.1 mm 1 m/S 722 mmHg 93%
    21:00 +25°C° 0.1 mm 1 m/S 723 mmHg 94%
    22:00 +25°C° 0.1 mm 1 m/S 723 mmHg 95%
    23:00 +25°C° 0 mm 1 m/S 723 mmHg 95%

    26 Juli, Freitag

    Zeit Temperatur Niederschläge Wind Luftdruck Luftfeuchtigkeit
    00:00 +25°C° 0 mm 1 m/S 723 mmHg 94%
    01:00 +25°C° 0 mm 1 m/S 722 mmHg 94%
    02:00 +25°C° 0.3 mm 1 m/S 722 mmHg 95%
    03:00 +24°C° 0.3 mm 1 m/S 722 mmHg 96%
    04:00 +24°C° 0.3 mm 1 m/S 722 mmHg 96%
    05:00 +24°C° 0.5 mm 1 m/S 722 mmHg 97%
    06:00 +22°C° 0.5 mm 0 m/S 722 mmHg 97%
    07:00 +22°C° 0.5 mm 0 m/S 723 mmHg 97%
    08:00 +24°C° 0 mm 0 m/S 723 mmHg 91%
    09:00 +25°C° 0 mm 0 m/S 723 mmHg 86%
    10:00 +27°C° 0 mm 0 m/S 724 mmHg 80%
    11:00 +30°C° 0.1 mm 1 m/S 723 mmHg 73%
    12:00 +32°C° 0.1 mm 1 m/S 722 mmHg 66%
    13:00 +33°C° 0.1 mm 1 m/S 722 mmHg 59%
    14:00 +33°C° 0.9 mm 1 m/S 721 mmHg 66%
    15:00 +32°C° 0.9 mm 1 m/S 720 mmHg 73%
    16:00 +31°C° 0.9 mm 1 m/S 719 mmHg 80%
    17:00 +30°C° 1.4 mm 1 m/S 720 mmHg 84%
    18:00 +28°C° 1.4 mm 1 m/S 720 mmHg 88%
    19:00 +27°C° 1.4 mm 1 m/S 720 mmHg 93%
    20:00 +26°C° 0.2 mm 1 m/S 721 mmHg 93%
    21:00 +26°C° 0.2 mm 1 m/S 722 mmHg 94%
    22:00 +25°C° 0.2 mm 1 m/S 722 mmHg 95%
    23:00 +25°C° 0 mm 1 m/S 722 mmHg 95%

    27 Juli, Samstag

    Zeit Temperatur Niederschläge Wind Luftdruck Luftfeuchtigkeit
    00:00 +25°C° 0 mm 1 m/S 722 mmHg 95%
    01:00 +25°C° 0 mm 1 m/S 722 mmHg 95%
    02:00 +25°C° 0 mm 1 m/S 721 mmHg 95%
    03:00 +25°C° 0 mm 1 m/S 721 mmHg 95%
    04:00 +23°C° 0 mm 0 m/S 721 mmHg 95%
    05:00 +23°C° 0 mm 0 m/S 721 mmHg 95%
    06:00 +25°C° 0 mm 1 m/S 721 mmHg 94%
    07:00 +25°C° 0 mm 1 m/S 722 mmHg 94%
    08:00 +26°C° 0 mm 1 m/S 722 mmHg 90%
    09:00 +27°C° 0 mm 1 m/S 722 mmHg 86%
    10:00 +28°C° 0 mm 1 m/S 723 mmHg 82%
    11:00 +29°C° 0.2 mm 1 m/S 722 mmHg 77%
    12:00 +30°C° 0.2 mm 1 m/S 722 mmHg 72%
    13:00 +31°C° 0.2 mm 2 m/S 721 mmHg 68%
    14:00 +31°C° 0.5 mm 2 m/S 721 mmHg 68%
    15:00 +31°C° 0.5 mm 2 m/S 720 mmHg 69%
    16:00 +31°C° 0.5 mm 2 m/S 720 mmHg 69%
    17:00 +30°C° 0 mm 1 m/S 720 mmHg 74%
    18:00 +29°C° 0 mm 1 m/S 720 mmHg 79%
    19:00 +28°C° 0 mm 1 m/S 720 mmHg 84%
    20:00 +27°C° 0 mm 1 m/S 721 mmHg 85%
    21:00 +27°C° 0 mm 1 m/S 721 mmHg 87%
    22:00 +26°C° 0 mm 1 m/S 722 mmHg 88%
    23:00 +26°C° 0.1 mm 1 m/S 721 mmHg 89%

    28 Juli, Sonntag

    Zeit Temperatur Niederschläge Wind Luftdruck Luftfeuchtigkeit
    00:00 +24°C° 0.1 mm 0 m/S 721 mmHg 90%
    01:00 +24°C° 0.1 mm 0 m/S 721 mmHg 92%
    02:00 +23°C° 1 mm 0 m/S 721 mmHg 93%
    03:00 +23°C° 1 mm 0 m/S 721 mmHg 94%
    04:00 +23°C° 1 mm 0 m/S 721 mmHg 95%
    05:00 +23°C° 1 mm 0 m/S 721 mmHg 96%
    06:00 +23°C° 1 mm 0 m/S 721 mmHg 97%
    07:00 +23°C° 1 mm 0 m/S 721 mmHg 97%
    08:00 +23°C° 0.6 mm 0 m/S 722 mmHg 97%
    09:00 +25°C° 0.6 mm 1 m/S 722 mmHg 97%
    10:00 +25°C° 0.6 mm 1 m/S 723 mmHg 97%
    11:00 +25°C° 1.2 mm 1 m/S 722 mmHg 97%
    12:00 +25°C° 1.2 mm 1 m/S 722 mmHg 97%
    13:00 +25°C° 1.2 mm 1 m/S 722 mmHg 97%
    14:00 +25°C° 0.5 mm 1 m/S 721 mmHg 97%
    15:00 +25°C° 0.5 mm 1 m/S 721 mmHg 97%
    16:00 +25°C° 0.5 mm 1 m/S 721 mmHg 96%
    17:00 +25°C° 0 mm 1 m/S 721 mmHg 96%
    18:00 +25°C° 0 mm 1 m/S 721 mmHg 97%
    19:00 +23°C° 0 mm 0 m/S 721 mmHg 97%
    20:00 +23°C° 0 mm 0 m/S 722 mmHg 97%
    21:00 +23°C° 0 mm 0 m/S 722 mmHg 97%
    22:00 +23°C° 0 mm 0 m/S 723 mmHg 97%
    23:00 +22°C° 0 mm 0 m/S 722 mmHg 97%
    Mehr zeigen